COSMOS 2251 DEB

Satellite information

Favourite Embed

Satellite Type and Status

DEBRISIN ORBIT

Key statistics

Satellite COSMOS 2251 DEB at a glance.

Uptime

11869

Days in orbit

Revolutions

≈ 14.4

Per day

Orbit

LEO

Low Earth Orbit

Inclination

74.2

Latest

Satellite identification and parameters

Extended collection of information and parameters for COSMOS 2251 DEB.

Object identification

Identified? True

Debris? True

Object name: COSMOS 2251 DEB

International designator: 1993-036AQN

Object number (NORAD): 35717

Object ID (CCSDS): 35717

Country: COMMONWEALTH OF INDEPENDENT STATES (CIS)

Current information (Y/N): Y

RCS size: SMALL

Orbital parameters

Period: 100.106 minutes

Inclination: 74.1604 deg

SMA: 7141.674 km

Apoapsis: 818.397 km

Periapsis: 708.682 km

RAAN: 219.9837 deg

Eccentricy: 0.00768139

Argument of periapsis: 79.9617 deg

Mean anomaly: 281.0194 deg

Mean motion: 14.38476212 rev/day

Mean motion (dot): 0.00006131 rev/day2

B* drag term: 0.0019460313 1/REarth

Two-line elements (TLE)

Creation date: Dec. 11, 2025, 7:14 p.m.

Reference frame: TEME

Reference center: EARTH

Epoch: Dec. 11, 2025, 9:07 a.m. UTC

TLE line 0: 0 COSMOS 2251 DEB

TLE line 1: 1 35717U 93036AQN 25345.37993319 .00006131 00000-0 19460-2 0 9990

TLE line 2: 2 35717 74.1604 219.9837 0076814 79.9617 281.0194 14.38476212740803

Live tracking on map

Real-time ground track for satellite COSMOS 2251 DEB.

In-orbit conjunctions

A list of the most updated potential collisions computed for object COSMOS 2251 DEB.

Target Orbit TCA Probability of collision Miss distance Type
SL-8 R/B LEO 2025-06-10 21:04:14 0.0003932161 456.0 (m) ROCKET BODY
FENGYUN 1C DEB SSO 2024-11-13 16:13:15 0.0001300608 45.0 (m) DEBRIS
OPAL SSO 2024-10-11 22:54:59 0.0007513447 121.0 (m) PAYLOAD

Associated space launch

Military communications satellite. Destroyed in a collision with Iridium 33.

COSMOS 2251 DEB was lifted into orbit during the mission ‘Kosmos-3M | Strela-2M 51’, on board a Kosmos-3M space rocket.

The launch took place on June 16, 1993, 4:17 a.m. from 132/1 (132L).

For more information about the launch, click the button.

Launch to space Kosmos-3M | Strela-2M 51
Kosmos-3M | Strela-2M 51

Agency: N/A

Status: Launch Successful

Launch date: June 16, 1993, 4:17 a.m. UTC

Rocket: Kosmos-3M

Launch pad: 132/1 (132L)

Location: Plesetsk Cosmodrome, Russian Federation

...

Latest news about this satellite

There are no fresh news available about this satellite. Check back as we update our databases every day.


Newsletter sign-up

Weekly statistics, charts and insights to help you stay on top of the space industry.